Date String (YYYY-MM-DD hh:mm:ss) UTC,Instrument flags,Ambient pressure (hPa),Sample flow (lpm),Bypass flow (lpm),Sample temperature (°C),Ambient temperature (°C),ASC tube jacket temperature (°C),LED temperature (°C),Box temperature (°C),Sample RH (%),Span deviation,Mass concentration (μg/m³),Mass concentration (μg/m³),Mass concentration (μg/m³)
DateTimeUTC,F1_M11,P_M11,Q1_M11,Q2_M11,T1_M11,T2_M11,T3_M11,T4_M11,T5_M11,U1_M11,ZSPAN_M11,X0_M11,X2_M11,X1_M11
2023-04-24 12:00:00,,0825.7,5.00,0.00,22.6,21.0,00.0,31.0,24.1,15.9,0001.6,0012.05,0007.93,0007.18
2023-04-24 12:01:00,,0825.8,5.01,0.00,22.5,21.0,00.0,31.0,24.1,15.8,0001.2,0011.91,0007.92,0007.16
2023-04-24 12:02:00,,0825.7,5.00,0.00,22.5,21.0,00.0,31.0,24.1,15.9,0001.5,0011.62,0007.92,0007.16
2023-04-24 12:03:00,,0825.8,5.00,0.00,22.5,21.0,00.0,31.0,24.1,15.9,0002.3,0011.90,0007.87,0007.13
2023-04-24 12:04:00,,0825.8,4.99,0.00,22.5,21.0,00.0,31.0,24.0,16.0,0002.8,0012.28,0007.90,0007.12
2023-04-24 12:05:00,,0825.8,5.00,0.00,22.5,20.9,00.0,30.9,23.9,16.1,0002.8,0012.50,0007.88,0007.12
2023-04-24 12:06:00,,0825.8,4.99,0.00,22.4,20.8,00.0,30.9,23.9,16.1,0002.6,0012.43,0007.86,0007.12
2023-04-24 12:07:00,,0825.8,5.01,0.00,22.4,20.8,00.0,30.9,23.9,16.1,0002.1,0013.02,0007.83,0007.10
2023-04-24 12:08:00,,0825.8,5.01,0.00,22.4,20.8,00.0,30.9,24.0,16.1,0002.2,0013.12,0007.85,0007.09
2023-04-24 12:09:00,,0825.8,5.00,0.00,22.4,20.9,00.0,30.9,24.0,16.1,0003.0,0012.97,0007.84,0007.09
2023-04-24 12:10:00,,0825.8,4.99,0.00,22.4,20.9,00.0,30.9,24.0,16.1,0003.1,0012.91,0007.83,0007.07
2023-04-24 12:11:00,,0825.8,5.00,0.00,22.4,20.9,00.0,30.9,24.0,16.1,0002.6,0012.97,0007.82,0007.06
2023-04-24 12:12:00,,0825.8,5.00,0.00,22.4,20.9,00.0,30.9,24.0,16.0,0001.3,0013.05,0007.84,0007.07
2023-04-24 12:13:00,,0825.9,5.01,0.00,22.4,20.9,00.0,30.9,24.0,16.1,-000.9,0013.00,0007.82,0007.07
2023-04-24 12:14:00,,0825.9,5.00,0.00,22.4,20.9,00.0,30.9,24.0,16.1,-001.2,0012.73,0007.86,0007.08
2023-04-24 12:15:00,,0825.9,5.00,0.00,22.4,20.9,00.0,30.9,23.9,16.2,-001.1,0012.43,0007.85,0007.08
2023-04-24 12:16:00,,0825.9,4.99,0.00,22.4,20.8,00.0,30.9,23.9,16.2,-001.4,0012.60,0007.83,0007.07
2023-04-24 12:17:00,,0825.9,5.00,0.00,22.4,20.8,00.0,30.8,23.9,16.2,-001.8,0012.89,0007.81,0007.05
2023-04-24 12:18:00,,0826.0,5.00,0.00,22.3,20.7,00.0,30.8,23.8,16.2,-001.8,0012.62,0007.82,0007.06
2023-04-24 12:19:00,,0826.0,5.00,0.00,22.3,20.7,00.0,30.8,23.9,16.2,-001.5,0012.64,0007.81,0007.06
2023-04-24 12:20:00,,0825.9,5.01,0.00,22.3,20.8,00.0,30.8,23.9,16.2,-001.5,0012.51,0007.75,0007.03
2023-04-24 12:21:00,,0825.9,5.00,0.00,22.4,20.8,00.0,30.8,24.0,16.1,-001.9,0012.60,0007.74,0007.03
2023-04-24 12:22:00,,0825.9,5.00,0.00,22.4,20.8,00.0,30.8,24.0,16.1,-001.2,0012.61,0007.73,0007.02
2023-04-24 12:23:00,,0825.9,5.00,0.00,22.3,20.8,00.0,30.8,23.9,16.1,-000.3,0012.63,0007.73,0007.01
2023-04-24 12:24:00,,0825.9,4.99,0.00,22.3,20.8,00.0,30.8,23.9,16.0,0000.8,0012.87,0007.72,0006.99
2023-04-24 12:25:00,,0825.9,4.99,0.00,22.3,20.8,00.0,30.8,23.9,15.9,0000.9,0012.81,0007.66,0006.97
2023-04-24 12:26:00,,0825.8,4.99,0.00,22.4,20.8,00.0,30.8,23.9,15.8,0000.7,0012.67,0007.61,0006.96
2023-04-24 12:27:00,,0825.9,5.00,0.00,22.3,20.8,00.0,30.8,23.9,15.9,0000.8,0012.44,0007.62,0006.95
2023-04-24 12:28:00,,0825.9,5.00,0.00,22.3,20.8,00.0,30.8,23.9,15.8,0001.5,0012.31,0007.64,0006.95
2023-04-24 12:29:00,,0825.9,5.00,0.00,22.3,20.8,00.0,30.8,23.9,15.8,0002.0,0011.82,0007.64,0006.95
2023-04-24 12:30:00,,0825.9,5.00,0.00,22.3,20.9,00.0,30.8,23.9,15.7,0002.2,0011.83,0007.63,0006.95
2023-04-24 12:31:00,,0825.9,5.00,0.00,22.3,20.9,00.0,30.8,23.9,15.7,0002.5,0012.05,0007.68,0006.96
2023-04-24 12:32:00,,0825.9,5.00,0.00,22.3,20.8,00.0,30.8,23.9,15.7,0003.3,0012.46,0007.69,0006.95
2023-04-24 12:33:00,,0825.9,5.00,0.00,22.3,20.8,00.0,30.8,23.9,15.8,0003.1,0012.91,0007.71,0006.95
2023-04-24 12:34:00,,0825.9,5.00,0.00,22.3,20.8,00.0,30.8,23.9,15.8,0002.9,0012.85,0007.70,0006.96
2023-04-24 12:35:00,,0825.9,5.01,0.00,22.3,20.8,00.0,30.8,23.9,15.8,0002.6,0012.55,0007.67,0006.95
2023-04-24 12:36:00,,0825.9,5.01,0.00,22.3,20.7,00.0,30.7,23.8,15.8,0003.1,0012.51,0007.68,0006.95
2023-04-24 12:37:00,,0825.9,5.00,0.00,22.3,20.7,00.0,30.7,23.8,16.0,0003.0,0012.63,0007.71,0006.95
2023-04-24 12:38:00,,0825.9,5.00,0.00,22.3,20.7,00.0,30.7,23.9,16.1,0002.9,0012.82,0007.71,0006.94
2023-04-24 12:39:00,,0825.9,5.00,0.00,22.3,20.8,00.0,30.7,23.9,16.2,0003.1,0012.67,0007.66,0006.92
2023-04-24 12:40:00,,0825.9,5.00,0.00,22.3,20.8,00.0,30.7,23.8,16.1,0003.3,0012.73,0007.65,0006.92
2023-04-24 12:41:00,,0825.9,4.99,0.00,22.3,20.8,00.0,30.7,23.8,16.1,0003.5,0012.77,0007.65,0006.92
2023-04-24 12:42:00,,0825.9,5.00,0.00,22.3,20.8,00.0,30.7,23.8,16.1,0003.5,0012.60,0007.63,0006.92
2023-04-24 12:43:00,,0825.9,5.01,0.00,22.3,20.8,00.0,30.7,23.8,15.8,0001.9,0012.12,0007.60,0006.94
2023-04-24 12:44:00,,0825.9,5.00,0.00,22.3,20.8,00.0,30.7,23.9,15.7,0002.1,0011.50,0007.59,0006.95
2023-04-24 12:45:00,,0825.9,5.00,0.00,22.3,20.8,00.0,30.7,23.8,15.7,0002.2,0011.46,0007.57,0006.93
2023-04-24 12:46:00,,0825.9,5.00,0.00,22.3,20.8,00.0,30.7,23.8,15.7,0001.8,0011.53,0007.60,0006.95
2023-04-24 12:47:00,,0825.9,4.99,0.00,22.2,20.7,00.0,30.7,23.8,15.8,0001.4,0011.60,0007.65,0006.97
2023-04-24 12:48:00,,0825.9,5.00,0.00,22.2,20.7,00.0,30.7,23.7,15.8,0000.4,0011.63,0007.66,0006.97
2023-04-24 12:49:00,,0825.9,5.00,0.00,22.2,20.7,00.0,30.7,23.7,15.8,0000.2,0011.38,0007.65,0006.98
2023-04-24 12:50:00,,0825.9,5.00,0.00,22.2,20.6,00.0,30.7,23.7,15.9,-000.5,0011.25,0007.68,0007.00
2023-04-24 12:51:00,,0825.9,5.00,0.00,22.2,20.6,00.0,30.6,23.7,15.9,-000.8,0011.17,0007.69,0007.02
2023-04-24 12:52:00,,0826.0,5.00,0.00,22.2,20.6,00.0,30.6,23.6,15.9,-000.7,0011.12,0007.72,0007.04
2023-04-24 12:53:00,,0826.0,5.00,0.00,22.2,20.6,00.0,30.6,23.6,15.9,0000.2,0011.15,0007.73,0007.05
2023-04-24 12:54:00,,0826.0,5.00,0.00,22.1,20.5,00.0,30.6,23.6,15.9,0000.7,0011.18,0007.74,0007.05
2023-04-24 12:55:00,,0826.0,5.00,0.00,22.1,20.5,00.0,30.6,23.5,16.0,0000.4,0011.10,0007.72,0007.05
2023-04-24 12:56:00,,0826.0,5.00,0.00,22.1,20.4,00.0,30.6,23.5,16.2,-000.1,0011.00,0007.70,0007.07
2023-04-24 12:57:00,,0826.0,5.01,0.00,22.0,20.3,00.0,30.6,23.5,16.1,-000.1,0011.01,0007.73,0007.07
2023-04-24 12:58:00,,0826.0,5.01,0.00,22.0,20.3,00.0,30.6,23.4,16.0,-000.8,0010.93,0007.71,0007.08
2023-04-24 12:59:00,,0825.9,5.00,0.00,22.0,20.3,00.0,30.5,23.4,16.0,-000.2,0010.77,0007.66,0007.08
